Flag for Switzerland Weather past 2 weeks in Sion, Valais, Switzerland

Now
45 °F

Quite cool.


Feels Like: 43 °F
Forecast: 33 / 44 °F
Wind: 3 mph from Northwest

Location: Sion

Current Time: Mar 3, 2015 at 12:54:42 AM

Latest Report: Mar 3, 2015 at 12:00 AM


Visibility: N/A

Pressure: 30.22 "Hg

Humidity: 55%

Dew point: 29 °F

Location of SionLocation

Historic Weather in Sion — Graph

°F

Sion temperature yesterday

Maximum temperature yesterday: 51 °F (at 2:00 PM)
Minimum temperature yesterday: 40 °F (at 12:00 AM)
Average temperature yesterday: 45 °F

Past Weeks' High & Low Weather Summary

 TemperatureHumidityPressure
High53 °F (Feb 16, 4:00 PM)95% (Feb 21, 9:00 PM)30.70 "Hg (Feb 21, 9:00 PM)
Low27 °F (Feb 20, 5:00 AM)17% (Feb 20, 3:00 PM)29.53 "Hg (Feb 21, 1:00 PM)
Average38 °F70%30.10 "Hg
* Reported Feb 15 11:00 PM — Mar 2 11:00 PM, Sion, Weather by CustomWeather, © 2015

Note: Actual official high and low records may vary slightly from our data, if they occured in-between our weather recording intervals... More about our weather records

Advertising

Sion weather history for previous 24 hours

 ConditionsComfort  
Time TempWeatherWind HumidityBarometerVisibility
11:00 PM
Mon, Mar 2
46 °FCool.7 mph49%30.19 "HgN/A
10:00 PM43 °FOvercast.6 mph71%30.16 "Hg9 mi
9:00 PM46 °FCool.5 mph63%30.14 "HgN/A
8:00 PM46 °FCool.3 mph64%30.09 "HgN/A
7:00 PM44 °FLight rain. Overcast.2 mph79%30.06 "Hg9 mi
6:00 PM48 °FCool.1 mph58%30.01 "HgN/A
5:00 PM49 °FCool.3 mph53%29.98 "HgN/A
4:00 PM48 °FLight rain. Low clouds.3 mph71%29.98 "Hg9 mi
3:00 PM48 °FCool.7 mph71%29.97 "HgN/A
2:00 PM51 °FCool.13 mph55%29.89 "HgN/A
1:00 PM51 °FRain. Overcast.12 mph68%29.91 "Hg9 mi
12:00 PM47 °FCool.1 mph89%29.94 "HgN/A
11:00 AM47 °FCool.3 mph87%29.93 "HgN/A
10:00 AM44 °FRain. Overcast.1 mph91%29.96 "Hg7 mi
9:00 AM42 °FQuite cool.2 mph94%29.93 "HgN/A
8:00 AM41 °FQuite cool.1 mph93%29.88 "HgN/A
7:00 AM41 °FRain. Overcast.3 mph94%29.88 "Hg7 mi
6:00 AM41 °FQuite cool.1 mph94%29.89 "HgN/A
5:00 AM41 °FQuite cool.1 mph95%29.91 "HgN/A
4:00 AM41 °FRain. Overcast.2 mph95%29.94 "Hg7 mi
3:00 AM41 °FQuite cool.1 mph95%29.97 "HgN/A
2:00 AM41 °FQuite cool.1 mph94%29.98 "HgN/A
1:00 AM41 °FRain. Overcast.2 mph94%29.98 "Hg7 mi
12:00 AM40 °FQuite cool.1 mph94%30.01 "HgN/A
Weather by CustomWeather, © 2015

See weather overviewHow to use our weather pages